www.pogodaiklimat.ru

Погода и климат >> Архив погоды >> Россия >> Татарстан >> Казань


АРХИВ ПОГОДЫ в Казани

Время (UTC), дата Ветер
(напр.,м/с)
 
Видим.   Явления Облачность Т
(С)
Тd
(С)
f
(%)
Тe
(С)
Тes
(С)
Комфортность P
(гПа)
Po
(гПа)
Тmin
(С)
Tmax
(С)
R
(мм)
R24
(мм)
S
(см)
09 14.10 ЮВ 2 10 км 10/10 600 м
[Sc]
+9.1 +6.7 85 +7 +7 по сезону 1009.1 994.8
12 14.10 ЮВ 3 10 км 10/10 600 м
[Sc]
+9.3 +6.6 83 +7 +7 по сезону 1008.8 994.4
15 14.10 В 1 10 км слабый дождь 10/10 300 м
[Frnb Ns]
+8.6 +7.4 92 +8 +8 тепло 1008.3 993.9 +9.7
18 14.10 В 1 10 км слабый дождь 10/10 200 м
[Frnb Ns]
+9.2 +8.5 95 +8 +8 тепло 1006.1 991.8
21 14.10 ЮВ 2 10 км дождь 10/10 300 м
[Frnb Ns]
+9.4 +8.6 95 +8 +8 тепло 1004.3 990.0
00 15.10 ЮВ 2 10 км дождь 10/10 300 м
[Frnb Ns]
+9.5 +8.9 96 +8 +8 тепло 1002.0 987.7
03 15.10 Ю 2 10 км слабый дождь 10/10 300 м
[Frnb Ns]
+9.1 +9.1 100 +7 +7 тепло 1001.5 987.2 +8.6 21
06 15.10 Ю 1 10 км {дождь} 9/8 600 м
[Sc diur, vesp Ac lent]
+8.0 +7.0 93 +7 +7 тепло 1002.5 988.1 +7.4
09 15.10 Ю 1 10 км в посл. час ливневой дождь 10/10 600 м
[Cb cap]
+8.2 +6.4 88 +7 +7 по сезону 1002.0 987.7
12 15.10 ЮВ 3 10 км слабый ливневой дождь 10/10 300 м
[Cb cap]
+8.1 +6.1 87 +5 +5 по сезону 1000.6 986.3
15 15.10 ЮВ 2 10 км слабый ливневой дождь 10/8 300 м
[Cb cap As op]
+7.3 +5.5 88 +5 +5 по сезону 999.6 985.3 +9.1 2
18 15.10 ЮВ 1 10 км слабый дождь {ливн. осадки} 10/5 200 м
[Frnb As op]
+5.9 +4.7 92 +5 +5 по сезону 999.5 985.1
21 15.10 В 1 10 км слабый дождь 10/6 200 м
[Frnb As op]
+5.7 +4.7 93 +4 +4 по сезону 999.7 985.3
00 16.10 В 1 10 км {дождь} 10/6 300 м
[Sc diur, vesp As op]
+5.5 +4.7 95 +4 +4 по сезону 1000.3 985.9
03 16.10 В 1 10 км {дождь} 9/9 300 м
[Sc diur, vesp]
+5.4 +4.6 95 +4 +4 по сезону 1001.7 987.2 +5.3 2
06 16.10 В 2 10 км слабый дождь 10/10 600 м
[Sc]
+6.7 +5.6 93 +4 +4 по сезону 1002.5 988.1
09 16.10 СВ 2 10 км слабый дождь 10/10 600 м
[Sc]
+7.7 +6.0 89 +6 +6 по сезону 1003.4 989.1
12 16.10 С 2 10 км {дождь} 10/10 600 м
[Sc]
+8.2 +6.0 86 +6 +6 по сезону 1004.4 990.0
15 16.10 С 2 10 км 9/9 600 м
[Sc]
+7.6 +5.8 88 +5 +5 по сезону 1006.0 991.6 +8.3
18 16.10 С 2 10 км 10/10 600 м
[Sc]
+7.2 +5.3 88 +5 +5 по сезону 1006.7 992.2
21 16.10 С 2 10 км 10/10 600 м
[Sc]
+6.9 +5.4 90 +5 +5 по сезону 1006.7 992.2
00 17.10 СЗ 1 10 км 10/10 600 м
[Sc]
+6.8 +5.4 91 +6 +6 тепло 1006.7 992.2
03 17.10 СЗ 1 10 км 10/10 600 м
[Sc]
+6.7 +5.4 91 +6 +6 тепло 1006.9 992.5 +6.7
06 17.10 З 2 10 км 10/10 600 м
[Sc]
+6.1 +4.9 92 +4 +4 по сезону 1007.0 992.5 +6.1
09 17.10 З 2 10 км 10/10 600 м
[Sc]
+6.8 +4.7 86 +5 +5 по сезону 1006.3 991.9
12 17.10 З 4 10 км 9/9 600 м
[Sc]
+8.5 +2.0 64 +6 +6 по сезону 1005.1 990.8
15 17.10 З 4 10 км в посл. час дождь 10/0 300 м
[As op]
+6.4 +4.2 86 +3 +3 по сезону 1006.0 991.5 +8.9 1
18 17.10 З 2 10 км в посл. час морось {дождь} 10/4 200 м
[Frnb As trans]
+5.6 +3.6 87 +3 +3 по сезону 1007.0 992.5
21 17.10 ЮЗ 1 10 км 10/10 300 м
[Sc]
+4.8 +3.2 89 +3 +3 по сезону 1007.5 992.9
00 18.10 З 2 10 км 10/10 300 м
[Sc]
+5.2 +3.7 90 +3 +3 по сезону 1007.6 993.1
03 18.10 З 1 10 км 5/3 300 м
[Sc Ac lent]
+3.3 +2.0 91 +2 +2 по сезону 1008.3 993.6 +3.2
06 18.10 ЮЗ 2 10 км 10/4 600 м
[Sc Ac cast Ci]
+4.4 +2.2 86 +2 +2 по сезону 1007.7 993.1
09 18.10 ЮЗ 2 10 км 10/10 300 м
[Sc]
+5.9 +2.1 77 +4 +4 по сезону 1005.5 991.0
12 18.10 ЮЗ 5 10 км 10/10 300 м
[Sc]
+6.6 +2.3 74 +3 +3 по сезону 1003.2 988.7
15 18.10 ЮЗ 3 10 км слабый дождь {морось} 10/0 300 м
[As op]
+7.0 +4.6 85 +4 +4 по сезону 1002.2 987.8 +7.0
18 18.10 З 3 10 км {дождь} 10/8 300 м
[Sc As op]
+8.5 +6.6 88 +6 +6 тепло 1000.4 986.2
21 18.10 ЮЗ 2 10 км {дождь} 10/10 300 м
[Sc]
+9.2 +7.4 88 +7 +7 тепло 999.5 985.3
00 19.10 З 2 10 км {дождь} 10/8 300 м
[Sc As trans]
+10.0 +7.9 87 +8 +8 тепло 999.3 985.1
03 19.10 ЮЗ 4
{10}
10 км слабый дождь 10/8 300 м
[Sc As op]
+10.2 +7.7 84 +8 +8 тепло 998.4 984.3 +7.0 0.3
06 19.10 З 6-10
{14}
10 км {ливн. осадки, дождь} 8/8 600 м
[Cb cap]
+8.4 +2.6 67 +5 +5 тепло 1000.9 986.6
09 19.10 З 5-11
{12}
10 км 8/8 600 м
[Cb cap]
+8.1 +2.5 68 +5 +5 по сезону 1003.3 989.0
12 19.10 З 6-13
{13}
10 км ливневой дождь 10/10 300 м
[Cb cap]
+7.7 +1.6 65 +4 +4 по сезону 1005.9 991.5
15 19.10 З 3
{13}
10 км {ливн. осадки} 6/6 600 м
[Cb cap]
+5.9 +2.5 79 +3 +3 по сезону 1008.1 993.6 +10.3 0.8
18 19.10 З 4-11
{11}
10 км {ливн. осадки} 5/5 600 м
[Sc diur, vesp]
+5.6 +2.0 78 +2 +2 по сезону 1009.2 994.6
21 19.10 З 4 10 км 6/6 600 м
[Sc diur, vesp]
+5.3 +1.5 76 +1 +1 по сезону 1009.9 995.3
00 20.10 З 4 10 км 8/8 300 м
[Cb cap]
+4.8 +0.7 75 +1 +1 по сезону 1010.8 996.1
03 20.10 СЗ 3
{11}
10 км 9/9 300 м
[Sc diur, vesp]
+4.2 -0.5 71 +1 +1 по сезону 1012.0 997.3 +4.2
06 20.10 СЗ 2 10 км 6/6 600 м
[Cb cap]
+4.0 -1.4 68 +2 +2 по сезону 1013.5 998.8 +3.8
09 20.10 З 3 10 км 8/8 600 м
[Cb cap]
+6.0 -4.0 49 +3 +4 по сезону 1014.3 999.7
12 20.10 С 2 10 км 9/9 600 м
[Sc]
+3.6 -5.0 53 +1 +1 по сезону 1015.7 1000.9
15 20.10 СЗ 2 10 км 10/10 600 м
[Sc]
+2.4 -4.4 61 -0 -0 по сезону 1017.0 1002.1 +6.1
18 20.10 СЗ 1 10 км {снег} 10/10 600 м
[Sc]
+2.2 -5.1 58 +1 +1 по сезону 1017.3 1002.4
21 20.10 СЗ 1 10 км 10/10 600 м
[Sc]
+1.2 -3.7 70 -0 -0 по сезону 1017.1 1002.2
00 21.10 С 1 10 км 10/10 600 м
[Sc]
+0.9 -4.9 65 -1 -1 по сезону 1017.0 1002.0
03 21.10 штиль 0 10 км 9/5 600 м
[Sc Ac lent]
-0.8 -4.5 76 -2 -2 по сезону 1016.7 1001.7 -0.8 0.0
06 21.10 СЗ 1 10 км 9/9 600 м
[Sc]
+1.4 -5.9 58 0 0 по сезону 1016.6 1001.7 -0.9

 

Местоположение метеостанции Казань (Татарстан, Россия): широта 55.73 долгота 49.20 высота над уровнем моря 119 м.

В архиве по умолчанию представлена погода в Казани за последнюю неделю. Архивные данные за месяц целиком и за предыдущие месяцы, начиная с января 2011 года, Вы можете получить, выбрав интересующий диапазон дат из раскрывающегося списка и нажав кнопку "Ввод!".

Внимание! Время в таблицах - всемирное. Для получения местного времени необходимо прибавить поправку, которая в Казани равна 3 ч.

Смотрите также архив погоды в соседних городах и на ближайших метеорологических станциях:

Погода в Лаишево (Татарстан, Россия) (40 км)
Погода в Вязовых (Татарстан, Россия) (44 км)
Погода в Арске (Татарстан, Россия) (57 км)
Погода в Больших Кайбицах (Татарстан, Россия) (74 км)
Погода в Морках (Марий-Эл, Россия) (79 км)
Погода в Тетюшах (Татарстан, Россия) (91 км)
Погода в Чистополе (Татарстан, Россия) (102 км)
Погода в Канаше (Чувашия, Россия) (111 км)
Погода в Чебоксарах (Чувашия, Россия) (123 км)
Погода в Батырево (Чувашия, Россия) (125 км)

Пояснения к столбцам:

Ветер - указаны скорость ветра в м/с - средняя за 10 мин, порывы в срок и между сроками (в фигурных скобках) и направление, откуда дует ветер: С - северный, СВ - северо-восточный, В - восточный, ЮВ - юго-восточный, Ю - южный, ЮЗ - юго-западный, З - западный, СЗ - северо-западный.
Видимость - горизонтальная дальность видимости в метрах или километрах. При видимости от 1 до 10 км при отсутствии осадков обычно наблюдается дымка, при ухудшении видимости до 1 км и менее - туман. В сухую погоду видимость может ухудшаться дымом, пылью или мглою.
Явления - указаны атмосферные явления, наблюдавшиеся в срок или в последний час перед сроком; фигурными скобками обозначены явления, наблюдавшиеся между сроками (за 1-3 часа до срока); квадратными скобками обозначены град или гололедные отложения с указанием их диаметра в мм.
Облачность - указаны через наклонную черту общая и нижняя облачность в баллах и высота нижней границы облаков в метрах; квадратными скобками обозначены формы облаков: Ci - перистые, Cs - перисто-слоистые, Cc - перисто-кучевые, Ac - высококучевые, As - высокослоистые, Sc - слоисто-кучевые, Ns - слоисто-дождевые, Cu - кучевые, Cb - кучево-дождевые. Подробнее классификацию облаков см. в Атласе облаков (PDF).
T - Температура воздуха - температура, измеренная на высоте 2 м над землей.
Td - Температура точки росы - температура, при понижении до которой содержащийся в воздухе водяной пар достигнет насыщения.
f - Относительная влажность воздуха - влажноcть воздуха, измеренная на высоте 2 м над землей.
Te - Эффективная температура - температура, которую ощущает одетый по сезону человек в тени. Характеристика душности погоды. При расчете учитывается влияние влажности воздуха и скорости ветра на теплоощущения человека.
Tes - Эффективная температура на солнце - температура, которую ощущает человек, с поправкой на солнечный нагрев. Характеристика знойности погоды. Зависит от высоты солнца над горизонтом, облачности и скорости ветра. Ночью, в пасмурную погоду, а также при ветре 12 м/с и более поправка равна нулю.
P - Атмосферное давление - приведенное к уровню моря атмосферное давление.
Po - Атмосферное давление - измеренное на уровне метеостанции атмосферное давление.
Tmin - Минимальная температура - минимум температуры воздуха на высоте 2 м над землей.
Tmax - Максимальная температура - максимум температуры воздуха на высоте 2 м над землей.
R - Количество осадков - Количество выпавших осадков за период времени, мм. При наведении курсора мыши на число - период времени, за который выпало указанное количество осадков.
R24 - Количество осадков - Количество выпавших осадков за 24 часа, мм.
S - Снежный покров - Высота снежного покрова, см. При наведении курсора мыши на число - состояние снежного покрова и степень покрытия местности в баллах.